www.pogodaiklimat.ru

Погода и климат >> Архив погоды >> Россия >> Адыгея >> Гузерипль


ПОГОДА в Гузерипле

  • Прогноз погоды в Гузерипле
  • Монитор погоды в Гузерипле

АРХИВ ПОГОДЫ в Гузерипле

Время (UTC), дата Ветер
(напр.,м/с)
 
Видим.   Явления Облачность Т
(С)
Тd
(С)
f
(%)
Тe
(С)
Тes
(С)
Комфортность P
(гПа)
Po
(гПа)
Тmin
(С)
Tmax
(С)
R
(мм)
R24
(мм)
S
(см)
12 12.06 С 1 10 км гроза, ливневой дождь 10/10 1000 м
[Cb cap]
+18.8 +18.3 97 +21 +21 комфорт 1010.1 934.0
15 12.06 штиль 0 20 км гроза без осадков {ливн. осадки} 10/10 300 м
[Cb cap]
+17.8 +17.4 98 +18 +18 1009.5 933.1 +24.9 1
18 12.06 штиль 0 20 км {гроза, ливн. осадки} 3/3 1500 м
[Sc diur, vesp]
+14.3 +14.3 100 +14 +14 1012.3 934.7
21 12.06 штиль 0 20 км 8/8 1000 м
[Sc diur, vesp]
+13.3 +13.0 98 +13 +13 1012.5 934.6
00 13.06 штиль 0 20 км 9/9 1000 м
[Sc diur, vesp]
+12.3 +12.3 100 +12 +12 1013.1 934.8
03 13.06 штиль 0 50 км 8/8 1000 м
[Sc diur, vesp]
+12.7 +12.7 100 +12 +12 1012.9 934.8 +11.9
06 13.06 штиль 0 20 км гроза без осадков 10/10 1000 м
[Sc diur, vesp]
+17.7 +14.6 82 +18 +18 1011.4 934.7
09 13.06 штиль 0 10 км гроза, ливневой дождь 10/10 600 м
[Cb cap]
+16.7 +16.7 100 +17 +17 1013.5 936.5
12 13.06 В 1 20 км {гроза, ливн. осадки} 10/10 1000 м
[Cb cap]
+19.1 +17.6 91 +22 +22 комфорт 1012.2 935.9
15 13.06 штиль 0 20 км {гроза, ливн. осадки} 8/4 1500 м
[Sc diur, vesp Ci]
+20.2 +19.3 95 +24 +25 комфорт 1010.7 934.8 +20.7 11
18 13.06 штиль 0 20 км 10/10 1000 м
[Sc diur, vesp]
+18.0 +17.9 99 +18 +18 1012.7 936.1
21 13.06 З 1 20 км 8/8 1000 м
[Sc diur, vesp]
+15.3 +15.3 100 +16 +16 1013.8 936.4
00 14.06 З 1 20 км 8/8 1000 м
[Sc diur, vesp]
+14.1 +14.1 100 +14 +14 1014.6 936.7
03 14.06 штиль 0 20 км 10/10 1000 м
[Sc diur, vesp]
+14.2 +14.2 100 +14 +14 1015.0 937.1 +13.7
06 14.06 штиль 0 20 км 3/0
[Ci]
+21.8 +15.6 68 +25 +39 комфорт 1012.0 936.4
09 14.06 Ю 1 20 км 3/3 1000 м
[Sc]
+25.8 +16.6 57 +29 +45 душно 1010.6 936.0
12 14.06 СВ 1 10 км гроза, ливневой дождь 10/10 1000 м
[Cb cap]
+19.4 +18.3 93 +23 +23 комфорт 1013.7 937.4
15 14.06 штиль 0 20 км в посл. час ливневой дождь {гроза} 10/10 200 м
[Cb cap]
+17.5 +17.5 100 +17 +17 1015.5 938.6 +25.8 15
18 14.06 штиль 0 20 км {гроза, ливн. осадки} 10/10 300 м
[Cb cap]
+16.5 +16.5 100 +16 +16 1015.0 937.8
21 14.06 штиль 0 20 км 5/5 300 м
[Cb cap]
+15.2 +15.2 100 +15 +15 1015.5 937.9
00 15.06 штиль 0 20 км 10/10 600 м
[Cb cap]
+13.4 +13.4 100 +13 +13 1015.6 937.5
03 15.06 штиль 0 20 км ясно +12.8 +12.8 100 +12 +14 1015.7 937.4 +12.4
06 15.06 В 1 20 км ясно +21.4 +15.8 70 +25 +38 комфорт 1011.8 936.1
09 15.06 З 1 20 км 4/4 1500 м
[Cu med, cong]
+27.2 +17.1 54 +31 +45 душно 1008.7 934.6
12 15.06 ЮВ 1 10 км гроза, ливневой дождь 10/10 1000 м
[Cb cap]
+19.0 +14.5 75 +21 +21 комфорт 1012.9 936.5
15 15.06 штиль 0 20 км в посл. час гроза {ливн. осадки} 10/10 300 м
[Cb cap]
+16.2 +16.2 100 +16 +16 1013.2 936.0 +28.5 4
18 15.06 штиль 0 20 км {гроза, ливн. осадки} 10/10 300 м
[Cb cap]
+15.8 +15.8 100 +16 +16 1012.7 935.5
21 15.06 ЮЗ 1 20 км 5/5 600 м
[Cb cap]
+13.6 +13.6 100 +14 +14 1013.7 935.8
00 16.06 штиль 0 20 км {ливн. осадки} 4/4 1000 м
[Sc diur, vesp]
+11.9 +11.9 100 +11 +11 1013.9 935.5
03 16.06 З 1 20 км 4/4 1000 м
[Sc diur, vesp]
+11.4 +11.4 100 +11 +12 1014.0 935.4 +11.0 0.3
06 16.06 СВ 1 20 км 1/0
[Ci]
+20.1 +15.5 75 +24 +36 комфорт 1010.7 934.7
09 16.06 В 1 20 км 4/4 1000 м
[Cu med, cong]
+27.6 +16.7 51 +31 +45 душно 1007.3 933.4
12 16.06 СВ 1 4000 м гроза, ливневой дождь [макс. диам. градин 10 мм] 10/10 300 м
[Cb cap]
+14.7 +14.7 100 +15 +15 1014.2 936.5
15 16.06 штиль 0 20 км {гроза, ливн. осадки} 9/9 1000 м
[Cb cap]
+14.4 +14.4 100 +14 +14 1013.2 935.5 +29.2 24
18 16.06 штиль 0 2000 м {гроза} 10/10 600 м
[Sc diur, vesp]
+14.4 +14.4 100 +14 +14 1012.5 934.9
21 16.06 штиль 0 20 км 4/4 1000 м
[Sc diur, vesp]
+12.8 +12.8 100 +12 +12 1013.0 934.9
00 17.06 штиль 0 20 км 5/5 600 м
[Sc diur, vesp]
+11.8 +11.8 100 +11 +11 1014.1 935.6
03 17.06 штиль 0 20 км 8/0
[Cc]
+12.0 +12.0 100 +11 +12 1013.8 935.4 +11.5
06 17.06 штиль 0 20 км ясно +19.8 +15.5 76 +22 +37 комфорт 1010.6 934.6
09 17.06 ЮВ 1 20 км 3/3 1000 м
[Sc diur, vesp]
+27.6 +15.6 48 +31 +46 душно 1007.5 933.5
12 17.06 штиль 0 20 км гроза без осадков 10/10 600 м
[Cb cap]
+20.4 +17.9 86 +24 +24 комфорт 1010.0 934.2
15 17.06 штиль 0 20 км в посл. час гроза 9/9 1000 м
[Cb cap]
+20.4 +17.6 84 +24 +24 комфорт 1010.1 934.3 +27.6
18 17.06 штиль 0 20 км {гроза} 3/0
[Cc]
+15.8 +15.7 99 +16 +16 1012.5 935.3
21 17.06 штиль 0 20 км 10/0
[Cc]
+14.9 +14.9 100 +15 +15 1012.8 935.3
00 18.06 С 1 20 км 10/0
[Cc]
+13.2 +13.2 100 +13 +13 1013.1 935.1
03 18.06 штиль 0 20 км 10/0
[Ci]
+12.2 +12.2 100 +11 +13 1013.9 935.6 +12.2
06 18.06 СВ 1 20 км 1/0
[Ci sp]
+21.0 +13.8 63 +25 +37 комфорт 1010.3 934.5
09 18.06 ЮВ 1 20 км 3/3 1000 м
[Sc]
+27.2 +14.0 44 +29 +45 жарко 1007.8 933.7
12 18.06 З 1 20 км 8/8 1000 м
[Cb cap]
+25.6 +14.7 51 +28 +31 жарко 1007.6 933.2
15 18.06 СВ 1 20 км гроза без осадков 10/10 1000 м
[Cb cap]
+22.5 +17.7 74 +28 +28 душно 1009.2 934.0 +29.0
18 18.06 штиль 0 20 км в посл. час гроза 1/1 1000 м
[Sc]
+18.2 +17.2 94 +19 +19 1011.3 934.8
21 18.06 штиль 0 20 км ясно +14.9 +14.8 99 +15 +15 1013.0 935.5
00 19.06 штиль 0 20 км ясно +12.8 +12.8 100 +12 +12 1013.6 935.4
03 19.06 штиль 0 20 км ясно +11.8 +11.8 100 +11 +13 1013.5 935.1 +11.7
06 19.06 штиль 0 20 км ясно +22.1 +14.1 60 +25 +40 комфорт 1009.5 934.0
09 19.06 В 1 20 км 8/8 1000 м
[Cb cap]
+28.4 +12.5 37 +30 +34 жарко 1006.8 933.0

 

Местоположение метеостанции Гузерипль (Адыгея, Россия): широта 44.00 долгота 40.13 высота над уровнем моря 677 м.

В архиве по умолчанию представлена погода в Гузерипле за последнюю неделю. Архивные данные за месяц целиком и за предыдущие месяцы, начиная с января 2011 года, Вы можете получить, выбрав интересующий диапазон дат из раскрывающегося списка и нажав кнопку "Ввод!".


*Определитесь, кто Вы:
робот инопланетянин человек

Внимание! Время в таблицах - всемирное. Для получения местного времени необходимо прибавить поправку, которая равна 3 ч.

Смотрите также архив погоды в соседних городах и на ближайших метеорологических станциях:

Погода в Красной Поляне (Краснодарский край, Россия) (36 км)
Погода на Кордоне Лаура (Краснодарский край, Россия) (36 км)
Погода в Горная Карусель 1500 (Краснодарский край, Россия) (41 км)
Погода в Горная Карусель 1000 (Краснодарский край, Россия) (41 км)
Погода в Кепше (Краснодарский край, Россия) (43 км)
Погода в Солох Ауле (Краснодарский край, Россия) (46 км)
Погода в Шунтуке (Адыгея, Россия) (52 км)
Погода в Кичмае (Краснодарский край, Россия) (53 км)
Погода в Псебае (Краснодарский край, Россия) (54 км)
Погода в Сочи (Краснодарский край, Россия) (55 км)

Пояснения к столбцам:

Ветер - указаны скорость ветра в м/с - средняя за 10 мин, порывы в срок и между сроками (в фигурных скобках) и направление, откуда дует ветер: С - северный, СВ - северо-восточный, В - восточный, ЮВ - юго-восточный, Ю - южный, ЮЗ - юго-западный, З - западный, СЗ - северо-западный.
Видимость - горизонтальная дальность видимости в метрах или километрах. При видимости от 1 до 10 км при отсутствии осадков обычно наблюдается дымка, при ухудшении видимости до 1 км и менее - туман. В сухую погоду видимость может ухудшаться дымом, пылью или мглою.
Явления - указаны атмосферные явления, наблюдавшиеся в срок или в последний час перед сроком; фигурными скобками обозначены явления, наблюдавшиеся между сроками (за 1-3 часа до срока); квадратными скобками обозначены град или гололедные отложения с указанием их диаметра в мм.
Облачность - указаны через наклонную черту общая и нижняя облачность в баллах и высота нижней границы облаков в метрах; квадратными скобками обозначены формы облаков: Ci - перистые, Cs - перисто-слоистые, Cc - перисто-кучевые, Ac - высококучевые, As - высокослоистые, Sc - слоисто-кучевые, Ns - слоисто-дождевые, Cu - кучевые, Cb - кучево-дождевые. Подробнее классификацию облаков см. в Атласе облаков (PDF).
T - Температура воздуха - температура, измеренная на высоте 2 м над землей.
Td - Температура точки росы - температура, при понижении до которой содержащийся в воздухе водяной пар достигнет насыщения.
f - Относительная влажность воздуха - влажноcть воздуха, измеренная на высоте 2 м над землей.
Te - Эффективная температура - температура, которую ощущает одетый по сезону человек в тени. Характеристика душности погоды. При расчете учитывается влияние влажности воздуха и скорости ветра на теплоощущения человека.
Tes - Эффективная температура на солнце - температура, которую ощущает человек, с поправкой на солнечный нагрев. Характеристика знойности погоды. Зависит от высоты солнца над горизонтом, облачности и скорости ветра. Ночью, в пасмурную погоду, а также при ветре 12 м/с и более поправка равна нулю.
P - Атмосферное давление - приведенное к уровню моря атмосферное давление.
Po - Атмосферное давление - измеренное на уровне метеостанции атмосферное давление.
Tmin - Минимальная температура - минимум температуры воздуха на высоте 2 м над землей.
Tmax - Максимальная температура - максимум температуры воздуха на высоте 2 м над землей.
R - Количество осадков - Количество выпавших осадков за период времени, мм. При наведении курсора мыши на число - период времени, за который выпало указанное количество осадков.
R24 - Количество осадков - Количество выпавших осадков за 24 часа, мм.
S - Снежный покров - Высота снежного покрова, см. При наведении курсора мыши на число - состояние снежного покрова и степень покрытия местности в баллах.